Regional Weather Roundup
Issued by NWS

Home | Current Version | Previous Version | Graphics & Text | Print | Product List | Glossary On
Versions: 1 2 3 4 5 6 7 8 9 10 11 12 13 14 15 16 17 18 19 20 21 22 23 24 25 26 27 28 29 30 31 32 33 34 35 36 37 38 39 40 41 42 43 44 45 46 47 48 49 50
000
ASUS43 KOAX 301210
RWRNE

WEATHER ROUNDUP FOR NEBRASKA
NATIONAL WEATHER SERVICE OMAHA NE
700 AM CDT SAT AUG 30 2014

NOTES: SATELLITE DATA IS BEING USED TO AUGMENT CLOUD COVER ABOVE
       12000 FEET.
       "FAIR" INDICATES FEW OR NO CLOUDS BELOW 12,000 FEET WITH NO
       SIGNIFICANT WEATHER AND/OR OBSTRUCTIONS TO VISIBILITY.

  * THESE STATIONS DO NOT REPORT WEATHER SUCH AS RAIN...SNOW OR FOG.

NEZ001>004-019>022-054>056-301300-
NEBRASKA PANHANDLE

CITY           SKY/WX    TMP DP  RH WIND       PRES   REMARKS
SCOTTSBLUFF    CLEAR     55  53  93 E10       30.01F
6HR MIN TEMP:  53; 6HR MAX TEMP:  59;

ALLIANCE       CLEAR     51  50  96 S7        30.01F
6HR MIN TEMP:  50; 6HR MAX TEMP:  57;

CHADRON        CLEAR     51  50  96 NE3       29.95F
6HR MIN TEMP:  50; 6HR MAX TEMP:  57;

KIMBALL        CLEAR     52  50  93 S6        30.05S
SIDNEY         CLEAR     56  53  90 S7        30.05F
6HR MIN TEMP:  54; 6HR MAX TEMP:  60;

$$

NEZ057>060-069>072-079>082-301300-
SOUTHWEST NEBRASKA

CITY           SKY/WX    TMP DP  RH WIND       PRES   REMARKS
NORTH PLATTE   PTCLDY    55  53  93 CALM      30.02S
6HR MIN TEMP:  53; 6HR MAX TEMP:  58;

IMPERIAL       CLEAR     57  53  86 CALM      30.03S
6HR MIN TEMP:  57; 6HR MAX TEMP:  64;

LEXINGTON      CLEAR     56  55  96 CALM      30.01R
MCCOOK         CLEAR     59  57  93 CALM      30.00S
6HR MIN TEMP:  58; 6HR MAX TEMP:  65;

OGALLALA       CLEAR     53  52  97 CALM      30.03S
$$

NEZ005>010-023>029-035>040-094-301300-
NORTH CENTRAL NEBRASKA

CITY           SKY/WX    TMP DP  RH WIND       PRES   REMARKS
VALENTINE      CLOUDY    53  52  96 CALM      30.00S
6HR MIN TEMP:  51; 6HR MAX TEMP:  58;

AINSWORTH      MOCLDY    55  55  98 CALM      30.01R
BROKEN BOW     CLEAR     54  53  97 SW6       30.00S
6HR MIN TEMP:  53; 6HR MAX TEMP:  62;

O`NEILL        CLOUDY    60  59  97 NW5       29.99S
ORD            CLEAR     56  55  97 N3        29.98R
6HR MIN TEMP:  56; 6HR MAX TEMP:  64;

THEDFORD       CLEAR     52  51  97 CALM      30.03R
$$

NEZ041-046>049-061>064-073>077-083>087-301300-
SOUTH CENTRAL NEBRASKA

CITY           SKY/WX    TMP DP  RH WIND       PRES   REMARKS
GRAND ISLAND   CLEAR     59  57  93 NW3       29.99R
6HR MIN TEMP:  59; 6HR MAX TEMP:  66;

AURORA         CLEAR     59  59 100 NW5       29.98R
HASTINGS       CLEAR     60  56  86 N3        29.99R
6HR MIN TEMP:  60; 6HR MAX TEMP:  64;

HEBRON         CLEAR     60  57  89 CALM      29.96S
HOLDREGE       CLEAR     58  56  92 N6        30.00S
KEARNEY *      CLEAR     57  55  94 NW3       30.01R
YORK           CLEAR     59 N/A N/A NW6       29.97S
$$

NEZ011>018-030>034-042>045-301300-
NORTHEAST NEBRASKA

CITY           SKY/WX    TMP DP  RH WIND       PRES   REMARKS
NORFOLK        CLOUDY    62  59  90 NW9       29.96R
6HR MIN TEMP:  62; 6HR MAX TEMP:  65;

ALBION         MOCLDY    59  57  94 NW9       29.97S
BLAIR          CLEAR     64  62  93 CALM      29.92R
FREMONT        MOCLDY    63  62  95 W6        29.93R
TEKAMAH        CLOUDY    65  63  93 NW6       29.91R
6HR MIN TEMP:  63; 6HR MAX TEMP:  65;

WAYNE          CLOUDY    62  60  94 NW7       29.95R
$$

NEZ050>053-065>068-078-088>093-301300-
SOUTHEAST NEBRASKA

CITY           SKY/WX    TMP DP  RH WIND       PRES   REMARKS
LINCOLN        CLEAR     64  60  87 NW7       29.95R
6HR MIN TEMP:  64; 6HR MAX TEMP:  67;

OMAHA EPPLEY   CLEAR     64  61  90 NW3       29.92R
6HR MIN TEMP:  63; 6HR MAX TEMP:  68;

BEATRICE       CLEAR     59  59 100 CALM      29.95R FOG
FALLS CITY     CLEAR     66  65  96 W6        29.91R
6HR MIN TEMP:  65; 6HR MAX TEMP:  70;

NEBRASKA CITY  CLEAR     64  64 100 NW7       29.92R
PLATTSMOUTH    CLEAR     64  62  93 W3        29.92R
$$

NEZ044-045-051>053-067-301300-
OMAHA AREA

CITY           SKY/WX    TMP DP  RH WIND       PRES   REMARKS
OMAHA EPPLEY   CLEAR     64  61  90 NW3       29.92R
6HR MIN TEMP:  63; 6HR MAX TEMP:  68;

BLAIR          CLEAR     64  62  93 CALM      29.92R
FREMONT        MOCLDY    63  62  95 W6        29.93R
MILLARD        CLEAR     65  63  91 NW3       29.91S
OFFUTT AFB     CLEAR     63  63 100 CALM      29.91R
PLATTSMOUTH    CLEAR     64  62  93 W3        29.92R
WAHOO          FAIR      63  60  90 NW5       29.93R
$$



USA.gov is the U.S. government's official web portal to all federal, state and local government web resources and services.